www.pogodaiklimat.ru

Погода и климат >> Архив погоды >> Япония >> Tokyo


АРХИВ ПОГОДЫ в Tokyo

Время (UTC), дата Ветер
(напр.,м/с)
 
Видим.   Явления Облачность Т
(С)
Тd
(С)
f
(%)
Тe
(С)
Тes
(С)
Комфортность P
(гПа)
Po
(гПа)
Тmin
(С)
Tmax
(С)
R
(мм)
R24
(мм)
S
(см)
08 18.06 СВ 3 н/о н/о +19.8 +18.1 90 +23 +23 комфорт 1010.0 1007.2
07 18.06 СВ 3 н/о н/о +19.1 +18.9 99 +21 +21 комфорт 1010.8 1008.0
09 18.06 С 3 10 км слабый дождь 10/3
[Cu Sc Ac As]
+19.0 +17.7 92 +21 +21 комфорт 1009.5 1006.7
10 18.06 С 3 н/о н/о +18.7 +17.9 95 +20 +20 холодно 1009.4 1006.6
11 18.06 С 2 н/о н/о +18.7 +17.9 95 +20 +20 прохладно 1009.0 1006.2
12 18.06 С 3 10 км слабый дождь 10/9
[Sc As op]
+18.8 +17.7 93 +20 +20 прохладно 1009.5 1006.7 +22.5 9
14 18.06 С 3 н/о н/о +18.2 +17.4 95 +19 +19 прохладно 1008.9 1006.1
13 18.06 С 3 н/о н/о +18.5 +17.4 93 +20 +20 прохладно 1009.5 1006.7
15 18.06 С 3 н/о н/о +17.9 +17.3 96 +18 +18 прохладно 1008.8 1006.0
16 18.06 С 3 н/о н/о +17.7 +16.6 93 +18 +18 прохладно 1008.4 1005.6
17 18.06 СЗ 4 н/о н/о +18.0 +16.3 90 +18 +18 прохладно 1008.0 1005.2
18 18.06 СЗ 3 20 км {дождь} 9/3
[Sc Ac As Ci sp]
+18.0 +15.6 86 +18 +18 прохладно 1007.9 1005.1 4
20 18.06 С 4 н/о н/о +18.5 +14.2 76 +19 +19 холодно 1008.8 1006.0
19 18.06 СЗ 3 н/о н/о +17.7 +15.0 84 +18 +18 холодно 1008.1 1005.3
21 18.06 С 3 20 км 9/1
[Sc Ac As]
+18.7 +14.0 74 +20 +20 по сезону 1009.0 1006.2
22 18.06 СЗ 4 н/о н/о +19.3 +14.1 72 +21 +21 комфорт 1008.9 1006.1
23 18.06 С 3 н/о н/о +21.6 +12.7 57 +24 +24 комфорт 1009.1 1006.3
00 19.06 СЗ 3 25 км 6/1
[Sc Ac trans Ci sp]
+23.8 +13.4 52 +26 +34 жарко 1008.8 1006.0 +17.3 4
02 19.06 СЗ 6 н/о н/о +26.8 +14.2 46 +29 +29 жарко 1007.7 1005.0
01 19.06 СЗ 3 н/о н/о +25.9 +15.3 52 +29 +29 душно 1008.1 1005.3
03 19.06 СЗ 2 25 км 5/1
[Cu med, cong Ac trans Ci sp]
+27.8 +13.7 42 +30 +44 жарко 1007.4 1004.7
04 19.06 С 2 н/о н/о +29.1 +12.5 36 +30 +30 жарко 1007.0 1004.3
05 19.06 С 3 н/о н/о +29.6 +9.7 29 +29 +29 жарко 1006.9 1004.2
06 19.06 ЮВ 2 20 км 4/1
[Cu med, cong Ac trans Ci sp]
+29.7 +13.9 38 +31 +40 жарко 1006.9 1004.2
08 19.06 Ю 3 н/о н/о +26.9 +14.3 46 +29 +29 жарко 1007.4 1004.7
07 19.06 ЮВ 5 н/о н/о +27.3 +14.7 46 +30 +30 душно 1007.2 1004.5
09 19.06 ЮВ 3 25 км 6/1
[Cu hum Ac trans Ci sp]
+25.9 +14.1 48 +28 +29 жарко 1008.2 1005.4
10 19.06 ЮВ 6 н/о н/о +22.6 +17.5 73 +28 +28 душно 1009.3 1006.5
11 19.06 ЮВ 5 н/о н/о +20.9 +15.9 73 +24 +24 комфорт 1010.1 1007.3
12 19.06 ЮВ 4 20 км 3/0
[Ci sp]
+19.9 +14.9 73 +22 +22 комфорт 1010.8 1008.0 +30.5
14 19.06 В 3 н/о н/о +19.3 +14.1 72 +21 +21 комфорт 1012.1 1009.3
13 19.06 ЮВ 4 н/о н/о +19.3 +13.7 70 +21 +21 комфорт 1011.8 1009.0
15 19.06 В 3 н/о н/о +18.7 +13.8 73 +20 +20 по сезону 1012.2 1009.4
16 19.06 СВ 2 н/о н/о +18.8 +14.1 74 +20 +20 прохладно 1012.3 1009.5
17 19.06 В 2 н/о н/о +18.8 +14.3 75 +20 +20 по сезону 1012.2 1009.4
18 19.06 ЮВ 1 20 км 9/9
[Cu Sc]
+18.4 +14.7 79 +20 +20 по сезону 1012.6 1009.8
20 19.06 Ю 2 н/о н/о +16.8 +15.0 89 +17 +17 холодно 1013.4 1010.5
19 19.06 В 1 н/о н/о +17.2 +14.3 83 +18 +18 холодно 1012.8 1009.9
21 19.06 Ю 2 15 км 8/1
[Cu hum Ac trans Ci fib]
+18.8 +15.5 81 +21 +22 комфорт 1013.6 1010.8
22 19.06 ЮВ 2 н/о н/о +19.8 +15.5 76 +23 +23 комфорт 1014.0 1011.2
23 19.06 ЮВ 2 н/о н/о +21.8 +16.8 73 +26 +26 душно 1014.3 1011.5
00 20.06 Ю 2 20 км 9/0
[Cs]
+22.4 +16.2 68 +27 +38 душно 1014.2 1011.4 +16.5
02 20.06 ЮВ 5 н/о н/о +24.9 +17.6 64 +29 +29 душно 1013.9 1011.1
01 20.06 ЮВ 3 н/о н/о +23.6 +16.7 65 +27 +27 жарко 1014.2 1011.4
03 20.06 ЮВ 5 15 км 9/0
[Ci sp]
+26.6 +19.0 63 +32 +42 очень
душно
1013.2 1010.4
04 20.06 ЮВ 5 н/о н/о +26.8 +18.4 60 +32 +32 очень
душно
1012.7 1009.9
05 20.06 Ю 4 н/о н/о +26.9 +19.3 63 +32 +32 очень
душно
1012.4 1009.6
06 20.06 ЮВ 5 15 км 9/1
[Cu hum Ci sp]
+26.8 +19.7 65 +33 +37 очень
душно
1012.2 1009.4
08 20.06 Ю 5 н/о н/о +25.6 +20.4 73 +32 +32 очень
душно
1012.1 1009.3
07 20.06 ЮВ 5 н/о н/о +27.3 +19.7 63 +33 +33 очень
душно
1011.8 1009.1
09 20.06 Ю 4 10 км 9/0
[Ac trans Ci sp]
+24.7 +20.2 76 +30 +31 очень
душно
1012.2 1009.4
10 20.06 Ю 4 н/о н/о +23.8 +20.4 81 +29 +29 душно 1012.4 1009.6
11 20.06 ЮВ 4 н/о н/о +23.5 +20.5 83 +29 +29 душно 1012.7 1009.9
12 20.06 Ю 4 10 км 9/3
[Cu med, cong Ac trans Ci sp]
+23.0 +20.9 88 +30 +30 очень
душно
1012.8 1010.0 +28.0
14 20.06 Ю 4 н/о н/о +23.0 +20.0 83 +30 +30 очень
душно
1012.7 1009.9
13 20.06 Ю 3 н/о н/о +23.1 +21.2 89 +31 +31 очень
душно
1012.7 1009.9
15 20.06 Ю 4 н/о н/о +23.0 +19.6 81 +30 +30 очень
душно
1012.4 1009.6
16 20.06 Ю 4 н/о н/о +22.9 +19.9 83 +30 +30 очень
душно
1011.9 1009.1
17 20.06 Ю 5 н/о н/о +23.3 +19.3 78 +30 +30 очень
душно
1011.9 1009.1
18 20.06 Ю 4 15 км 10/1
[Cu hum Ac As]
+23.2 +19.0 77 +29 +29 душно 1011.7 1008.9
20 20.06 Ю 4 н/о н/о +22.3 +18.5 79 +28 +28 душно 1012.5 1009.7
19 20.06 Ю 5 н/о н/о +23.1 +17.8 72 +29 +29 очень
душно
1012.3 1009.5
21 20.06 Ю 3 15 км слабый дождь 10/1
[Cu Sc Ac As]
+21.5 +19.3 87 +26 +27 душно 1012.4 1009.6
22 20.06 Ю 3 н/о н/о +22.3 +19.1 82 +28 +28 душно 1012.3 1009.5
23 20.06 Ю 4 н/о н/о +20.8 +19.8 94 +26 +26 душно 1012.4 1009.6
00 21.06 ЮВ 4 8000 м слабый ливневой дождь 10/9
[Cu med, cong Ac As]
+21.8 +21.0 95 +28 +28 душно 1011.1 1008.3 +20.3 2
02 21.06 Ю 2 н/о н/о +20.0 +19.5 97 +24 +24 комфорт 1009.9 1007.1
01 21.06 Ю 5 н/о н/о +20.2 +19.7 97 +24 +24 комфорт 1010.6 1007.8
03 21.06 ЮВ 5 2500 м ливневой дождь 10/10 200 м
[Cu med, cong]
+19.9 +19.4 97 +23 +23 комфорт 1007.4 1004.6
04 21.06 ЮВ 8 н/о н/о +20.9 +20.6 98 +26 +26 душно 1005.4 1002.6
05 21.06 ЮВ 6 н/о н/о +21.7 +21.4 98 +28 +28 душно 1003.7 1000.9
06 21.06 ЮВ 8 4000 м ливневой дождь 10/10
[Cu med, cong]
+21.6 +21.1 97 +28 +28 очень
душно
1001.0 998.2 37
08 21.06 Ю 9 н/о н/о +23.8 +23.1 96 +32 +32 очень
душно
999.2 996.4
07 21.06 Ю 8 н/о н/о +22.7 +22.5 99 +31 +31 очень
душно
1000.4 997.6
09 21.06 Ю 6 10 км в посл. час ливневой дождь 9/9
[Cu med, cong]
+24.2 +22.8 92 +32 +32 очень
душно
999.0 996.3
10 21.06 Ю 5 н/о н/о +24.2 +22.3 89 +31 +31 очень
душно
999.2 996.5
11 21.06 Ю 5 н/о н/о +24.0 +22.1 89 +31 +31 очень
душно
999.5 996.8
12 21.06 Ю 6 20 км {ливн. осадки} 8/8
[Cu med, cong]
+24.2 +21.9 87 +31 +31 очень
душно
999.7 997.0 +24.4 44
14 21.06 Ю 2 н/о н/о +22.8 +21.8 94 +31 +31 очень
душно
1000.7 997.9
13 21.06 Ю 3 н/о н/о +23.7 +21.8 89 +30 +30 очень
душно
1000.1 997.3
15 21.06 С 2 н/о н/о +22.6 +20.9 90 +30 +30 очень
душно
1001.2 998.4
16 21.06 Ю 2 н/о н/о +21.4 +20.4 94 +27 +27 душно 1001.4 998.6
17 21.06 ЮЗ 2 н/о н/о +20.7 +20.5 99 +26 +26 душно 1002.0 999.2
18 21.06 СЗ 3 20 км 9/3
[Cu med, cong Ac trans]
+20.8 +20.5 98 +26 +26 душно 1002.5 999.7
20 21.06 СЗ 5 н/о н/о +22.5 +14.9 62 +26 +26 жарко 1004.2 1001.4
19 21.06 СЗ 3 н/о н/о +22.0 +17.6 76 +27 +27 душно 1003.0 1000.2
21 21.06 СЗ 5 20 км 9/8
[Sc Ac trans Ci sp]
+22.7 +14.6 60 +26 +26 жарко 1004.8 1002.0
22 21.06 СЗ 4 н/о н/о +23.6 +13.5 53 +26 +26 жарко 1005.8 1003.0
23 21.06 СЗ 5 н/о н/о +24.0 +14.1 54 +26 +26 жарко 1006.9 1004.1
00 22.06 СЗ 5 30 км 9/3
[Cu Sc Ci sp]
+26.2 +13.3 45 +28 +33 жарко 1007.2 1004.5 +20.5
02 22.06 СЗ 5 н/о н/о +26.6 +14.1 46 +29 +29 жарко 1007.9 1005.2
01 22.06 СЗ 6 н/о н/о +26.4 +13.5 45 +28 +28 жарко 1007.2 1004.5
03 22.06 СЗ 3 25 км 9/1
[Cu med, cong Ac trans Cs]
+26.3 +13.1 44 +28 +37 жарко 1007.9 1005.2
04 22.06 СЗ 4 н/о н/о +27.0 +13.7 44 +29 +29 жарко 1007.3 1004.6
05 22.06 СЗ 1 н/о н/о +26.9 +14.0 45 +29 +29 жарко 1007.3 1004.6
06 22.06 ЮЗ 2 25 км 9/3
[Cu med, cong Ac trans Cs]
+27.6 +15.6 48 +31 +35 душно 1007.0 1004.3
08 22.06 Ю 4 н/о н/о +25.8 +14.3 49 +28 +28 жарко 1007.5 1004.7
07 22.06 Ю 4 н/о н/о +26.2 +13.7 46 +28 +28 жарко 1007.3 1004.6
09 22.06 ЮЗ 3 25 км 9/1
[Cu hum Ac trans Ci sp]
+25.1 +17.1 61 +29 +29 душно 1007.6 1004.8
10 22.06 Ю 3 н/о н/о +24.5 +17.0 63 +28 +28 душно 1007.7 1004.9
11 22.06 Ю 3 н/о н/о +23.6 +17.4 68 +27 +27 жарко 1008.0 1005.2
12 22.06 Ю 2 15 км 9/0
[Ci sp]
+22.7 +16.7 69 +27 +27 душно 1008.5 1005.7 +27.9
14 22.06 Ю 2 н/о н/о +20.7 +17.7 83 +25 +25 комфорт 1008.2 1005.4
13 22.06 Ю 3 н/о н/о +21.9 +16.9 73 +26 +26 душно 1008.5 1005.7
15 22.06 ЮЗ 1 н/о н/о +20.2 +18.2 88 +25 +25 комфорт 1008.1 1005.3
16 22.06 СЗ 2 н/о н/о +21.4 +17.4 78 +25 +25 комфорт 1007.9 1005.1
17 22.06 СЗ 2 н/о н/о +20.5 +17.1 81 +25 +25 комфорт 1007.9 1005.1
18 22.06 СЗ 3 15 км 1/0
[Ci sp]
+20.6 +17.0 80 +24 +24 комфорт 1007.9 1005.1
20 22.06 СЗ 2 н/о н/о +19.9 +18.2 90 +24 +24 комфорт 1008.4 1005.6
19 22.06 СЗ 2 н/о н/о +19.5 +17.5 88 +23 +23 комфорт 1008.1 1005.3
21 22.06 СЗ 1 15 км 9/0
[Ci sp]
+21.6 +18.8 84 +26 +28 душно 1008.5 1005.7
22 22.06 СВ 2 н/о н/о +22.9 +18.9 78 +29 +29 очень
душно
1008.7 1005.9
23 22.06 СВ 2 н/о н/о +25.2 +18.9 68 +30 +30 душно 1008.6 1005.8
00 23.06 С 2 20 км 5/0
[Ci sp]
+25.9 +17.0 58 +30 +44 душно 1008.5 1005.7 +19.1
02 23.06 Ю 4 н/о н/о +27.9 +15.9 48 +31 +31 душно 1008.1 1005.4
01 23.06 ЮВ 4 н/о н/о +26.9 +15.9 51 +30 +30 душно 1008.4 1005.7
03 23.06 Ю 3 15 км 3/3
[Cu med, cong Ci sp]
+28.4 +17.3 51 +32 +45 душно 1007.5 1004.8
04 23.06 ЮВ 5 н/о н/о +28.8 +16.0 46 +32 +32 душно 1007.1 1004.4
05 23.06 ЮВ 5 н/о н/о +29.2 +16.7 47 +33 +33 очень
душно
1006.8 1004.1
06 23.06 ЮВ 5 20 км 3/3
[Cu med, cong Ac trans Ci sp]
+29.4 +18.8 53 +35 +39 очень
душно
1006.5 1003.8
08 23.06 Ю 5 н/о н/о +27.6 +18.9 59 +33 +33 очень
душно
1006.3 1003.6
07 23.06 Ю 5 н/о н/о +28.4 +18.5 55 +33 +33 очень
душно
1006.2 1003.5
09 23.06 ЮЗ 5 20 км 4/1
[Cu hum Ac trans Ci sp]
+25.9 +18.8 65 +31 +31 очень
душно
1007.0 1004.2
10 23.06 Ю 4 н/о н/о +24.7 +18.9 70 +30 +30 очень
душно
1007.3 1004.5
11 23.06 Ю 3 н/о н/о +23.9 +17.9 69 +28 +28 душно 1007.6 1004.8
12 23.06 Ю 3 20 км 3/1
[Cu hum Ci sp]
+23.2 +19.4 79 +30 +30 очень
душно
1008.1 1005.3 +30.2
14 23.06 Ю 4 н/о н/о +22.7 +20.1 85 +29 +29 очень
душно
1007.9 1005.1
13 23.06 Ю 4 н/о н/о +23.0 +19.8 82 +30 +30 очень
душно
1007.9 1005.1
15 23.06 ЮВ 4 н/о н/о +22.3 +20.0 87 +28 +28 душно 1007.7 1004.9
16 23.06 Ю 3 н/о н/о +22.6 +20.0 85 +29 +29 очень
душно
1007.7 1004.9
17 23.06 Ю 3 н/о н/о +22.1 +19.9 87 +28 +28 душно 1007.6 1004.8
18 23.06 Ю 4 20 км 9/9
[Cu med, cong]
+22.0 +19.9 88 +28 +28 душно 1007.5 1004.7
20 23.06 Ю 2 н/о н/о +22.2 +20.1 88 +28 +28 душно 1008.1 1005.3
19 23.06 Ю 4 н/о н/о +22.4 +20.0 86 +29 +29 очень
душно
1007.9 1005.1
21 23.06 Ю 4 15 км {ливн. осадки} 9/6
[Cu med, cong Ci fib]
+22.9 +20.1 84 +30 +30 очень
душно
1008.7 1005.9
22 23.06 Ю 3 н/о н/о +23.4 +20.0 81 +30 +30 очень
душно
1008.9 1006.1
23 23.06 ЮВ 4 н/о н/о +24.8 +19.6 73 +30 +30 душно 1008.4 1005.6
00 24.06 ЮВ 3 20 км {ливн. осадки} 9/3
[Cu med, cong Cs]
+24.6 +19.2 72 +30 +37 очень
душно
1008.0 1005.2 +21.9
02 24.06 ЮВ 4 н/о н/о +26.8 +18.9 62 +32 +32 очень
душно
1007.3 1004.6
01 24.06 ЮВ 4 н/о н/о +25.9 +18.8 65 +31 +31 очень
душно
1007.8 1005.0
03 24.06 Ю 4 20 км 6/1
[Cu med, cong Ci sp]
+27.5 +18.5 58 +32 +45 очень
душно
1006.5 1003.8
04 24.06 ЮВ 4 н/о н/о +28.1 +18.8 57 +33 +33 очень
душно
1005.7 1003.0
05 24.06 Ю 4 н/о н/о +28.3 +19.5 59 +34 +34 очень
душно
1005.2 1002.5
06 24.06 Ю 4 20 км 9/1
[Cu med, cong Ci sp]
+27.6 +18.6 58 +33 +38 очень
душно
1004.7 1002.0
08 24.06 Ю 4 н/о н/о +26.1 +19.3 66 +31 +31 очень
душно
1004.7 1002.0
07 24.06 ЮВ 5 н/о н/о +26.7 +18.8 62 +32 +32 очень
душно
1004.6 1001.9
09 24.06 ЮВ 5 20 км 9/4
[Cu med, cong Ac trans Ci sp]
+25.4 +19.3 69 +31 +31 очень
душно
1004.9 1002.2
10 24.06 Ю 4 н/о н/о +24.1 +19.2 74 +29 +29 душно 1005.0 1002.2
11 24.06 Ю 4 н/о н/о +23.8 +19.1 75 +29 +29 душно 1005.4 1002.6
12 24.06 ЮВ 3 20 км 8/4
[Cu med, cong Ci sp]
+23.7 +19.9 79 +29 +29 душно 1005.5 1002.7 +29.0
14 24.06 Ю 2 н/о н/о +23.0 +20.7 87 +30 +30 очень
душно
1005.3 1002.5
13 24.06 ЮВ 2 н/о н/о +23.5 +20.5 83 +29 +29 душно 1005.5 1002.7
15 24.06 ЮЗ 1 н/о н/о +22.6 +20.9 90 +30 +30 очень
душно
1004.6 1001.8
16 24.06 Ю 1 н/о н/о +22.6 +20.7 89 +29 +29 очень
душно
1003.7 1000.9
17 24.06 ЮЗ 1 н/о н/о +22.9 +21.0 89 +30 +30 очень
душно
1003.9 1001.1
18 24.06 ЮЗ 2 10 км слабый дождь 10/9
[Cu Sc Ac As]
+22.9 +20.6 87 +30 +30 очень
душно
1003.3 1000.5
20 24.06 З 1 н/о н/о +21.7 +21.4 98 +28 +28 душно 1003.0 1000.2
19 24.06 З 1 н/о н/о +22.0 +20.8 93 +28 +28 душно 1003.0 1000.2
21 24.06 СЗ 1 4000 м слабый дождь 10/9
[Cu Sc Ac As]
+21.6 +21.4 99 +28 +28 очень
душно
1003.1 1000.3
22 24.06 С 2 н/о н/о +22.0 +21.5 97 +29 +29 очень
душно
1002.8 1000.0
23 24.06 С 2 н/о н/о +22.0 +21.8 99 +29 +29 очень
душно
1001.0 998.2
00 25.06 С 2 3000 м дождь 10/8
[Frnb As op]
+22.2 +21.9 98 +29 +30 очень
душно
1001.3 998.5 +21.5 5
01 25.06 С 2 н/о н/о +22.1 +21.9 99 +29 +29 очень
душно
1000.5 997.7
03 25.06 СЗ 1 5000 м в посл. час дождь 10/5 300 м
[Cu Sc Ac As]
+22.6 +22.3 98 +30 +34 очень
душно
1000.7 997.9
04 25.06 Ю 1 н/о н/о +22.9 +22.2 96 +31 +31 очень
душно
1000.4 997.6
05 25.06 Ю 2 н/о н/о +22.7 +22.4 98 +31 +31 очень
душно
1000.1 997.3
06 25.06 Ю 2 10 км в посл. час ливневой дождь 10/8
[Cu Sc Ac As]
+22.9 +22.1 95 +31 +32 очень
душно
1000.2 997.4 6
07 25.06 ЮВ 3 н/о н/о +22.3 +21.5 95 +29 +29 очень
душно
1000.6 997.8

 

Местоположение метеостанции Tokyo (Япония): широта 35.68 долгота 139.76 высота над уровнем моря 36 м.

В архиве по умолчанию представлена погода в Tokyo за последнюю неделю. Архивные данные за месяц целиком и за предыдущие месяцы, начиная с января 2011 года, Вы можете получить, выбрав интересующий диапазон дат из раскрывающегося списка и нажав кнопку "Ввод!".

Внимание! Время в таблицах - всемирное. Для получения местного времени необходимо прибавить поправку, которая в Tokyo равна 9 ч.

Смотрите также архив погоды в соседних городах и на ближайших метеорологических станциях:

Погода в Yokohama (Япония) (30 км)
Погода в Chiba (Япония) (32 км)
Погода в Kumagaya (Япония) (62 км)
Погода в Chichibu (Япония) (71 км)
Погода в Katsuura (Япония) (77 км)
Погода в Tateyama (Япония) (78 км)
Погода в Ajiro (Япония) (92 км)
Погода в Kawaguchiko (Япония) (93 км)
Погода в Utsunomiya (Япония) (97 км)
Погода в Mishima (Япония) (98 км)

Пояснения к столбцам:

Ветер - указаны скорость ветра в м/с - средняя за 10 мин, порывы в срок и между сроками (в фигурных скобках) и направление, откуда дует ветер: С - северный, СВ - северо-восточный, В - восточный, ЮВ - юго-восточный, Ю - южный, ЮЗ - юго-западный, З - западный, СЗ - северо-западный.
Видимость - горизонтальная дальность видимости в метрах или километрах. При видимости от 1 до 10 км при отсутствии осадков обычно наблюдается дымка, при ухудшении видимости до 1 км и менее - туман. В сухую погоду видимость может ухудшаться дымом, пылью или мглою.
Явления - указаны атмосферные явления, наблюдавшиеся в срок или в последний час перед сроком; фигурными скобками обозначены явления, наблюдавшиеся между сроками (за 1-3 часа до срока); квадратными скобками обозначены град или гололедные отложения с указанием их диаметра в мм.
Облачность - указаны через наклонную черту общая и нижняя облачность в баллах и высота нижней границы облаков в метрах; квадратными скобками обозначены формы облаков: Ci - перистые, Cs - перисто-слоистые, Cc - перисто-кучевые, Ac - высококучевые, As - высокослоистые, Sc - слоисто-кучевые, Ns - слоисто-дождевые, Cu - кучевые, Cb - кучево-дождевые. Подробнее классификацию облаков см. в Атласе облаков (PDF).
T - Температура воздуха - температура, измеренная на высоте 2 м над землей.
Td - Температура точки росы - температура, при понижении до которой содержащийся в воздухе водяной пар достигнет насыщения.
f - Относительная влажность воздуха - влажноcть воздуха, измеренная на высоте 2 м над землей.
Te - Эффективная температура - температура, которую ощущает одетый по сезону человек в тени. Характеристика душности погоды. При расчете учитывается влияние влажности воздуха и скорости ветра на теплоощущения человека.
Tes - Эффективная температура на солнце - температура, которую ощущает человек, с поправкой на солнечный нагрев. Характеристика знойности погоды. Зависит от высоты солнца над горизонтом, облачности и скорости ветра. Ночью, в пасмурную погоду, а также при ветре 12 м/с и более поправка равна нулю.
P - Атмосферное давление - приведенное к уровню моря атмосферное давление.
Po - Атмосферное давление - измеренное на уровне метеостанции атмосферное давление.
Tmin - Минимальная температура - минимум температуры воздуха на высоте 2 м над землей.
Tmax - Максимальная температура - максимум температуры воздуха на высоте 2 м над землей.
R - Количество осадков - Количество выпавших осадков за период времени, мм. При наведении курсора мыши на число - период времени, за который выпало указанное количество осадков.
R24 - Количество осадков - Количество выпавших осадков за 24 часа, мм.
S - Снежный покров - Высота снежного покрова, см. При наведении курсора мыши на число - состояние снежного покрова и степень покрытия местности в баллах.